History Data

Date (GMT-7:00) CPM ACPM uSv/h Latitude Longitude Altitude CO CO2 TVOC HCHO Air Pressure Temperature Humidity Type
2026-07-23 02:44:35 19 19.60 0.095000 41.649648 41.62752893 0 0 0 0 0 0 0 0 STD5.60
2026-07-23 02:39:33 16 17.20 0.080000 41.649648 41.62752893 0 0 0 0 0 0 0 0 STD5.60
2026-07-23 02:34:32 25 17.70 0.125000 41.649648 41.62752893 0 0 0 0 0 0 0 0 STD5.60
2026-07-23 02:29:30 20 16.30 0.100000 41.649648 41.62752893 0 0 0 0 0 0 0 0 STD5.60
2026-07-23 02:24:28 13 14.20 0.065000 41.649648 41.62752893 0 0 0 0 0 0 0 0 STD5.60
2026-07-23 02:19:26 15 16.60 0.075000 41.649648 41.62752893 0 0 0 0 0 0 0 0 STD5.60
2026-07-23 02:14:21 22 18.90 0.110000 41.649648 41.62752893 0 0 0 0 0 0 0 0 STD5.60
2026-07-23 02:09:19 14 17.70 0.070000 41.649648 41.62752893 0 0 0 0 0 0 0 0 STD5.60
2026-07-23 02:04:18 12 17.20 0.060000 41.649648 41.62752893 0 0 0 0 0 0 0 0 STD5.60
2026-07-23 01:59:16 18 18.10 0.090000 41.649648 41.62752893 0 0 0 0 0 0 0 0 STD5.60
2026-07-23 01:54:14 25 18.70 0.125000 41.649648 41.62752893 0 0 0 0 0 0 0 0 STD5.60
2026-07-23 01:49:13 19 20.10 0.095000 41.649648 41.62752893 0 0 0 0 0 0 0 0 STD5.60
2026-07-23 01:44:11 17 19.90 0.085000 41.649648 41.62752893 0 0 0 0 0 0 0 0 STD5.60
2026-07-23 01:39:09 16 17.50 0.080000 41.649648 41.62752893 0 0 0 0 0 0 0 0 STD5.60
2026-07-23 01:34:07 25 18.00 0.125000 41.649648 41.62752893 0 0 0 0 0 0 0 0 STD5.60
2026-07-23 01:29:05 26 19.40 0.130000 41.649648 41.62752893 0 0 0 0 0 0 0 0 STD5.60
2026-07-23 01:24:04 15 18.20 0.075000 41.649648 41.62752893 0 0 0 0 0 0 0 0 STD5.60
2026-07-23 01:19:02 20 17.80 0.100000 41.649648 41.62752893 0 0 0 0 0 0 0 0 STD5.60
2026-07-23 01:13:57 25 19.60 0.125000 41.649648 41.62752893 0 0 0 0 0 0 0 0 STD5.60
2026-07-23 01:08:55 11 18.40 0.055000 41.649648 41.62752893 0 0 0 0 0 0 0 0 STD5.60
2026-07-23 01:03:53 15 17.20 0.075000 41.649648 41.62752893 0 0 0 0 0 0 0 0 STD5.60
2026-07-23 00:58:51 17 19.10 0.085000 41.649648 41.62752893 0 0 0 0 0 0 0 0 STD5.60
2026-07-23 00:53:49 24 18.00 0.120000 41.649648 41.62752893 0 0 0 0 0 0 0 0 STD5.60
2026-07-23 00:48:47 13 16.10 0.065000 41.649648 41.62752893 0 0 0 0 0 0 0 0 STD5.60
2026-07-23 00:43:46 14 17.00 0.070000 41.649648 41.62752893 0 0 0 0 0 0 0 0 STD5.60
2026-07-23 00:38:44 15 17.50 0.075000 41.649648 41.62752893 0 0 0 0 0 0 0 0 STD5.60
2026-07-23 00:33:42 15 16.30 0.075000 41.649648 41.62752893 0 0 0 0 0 0 0 0 STD5.60
2026-07-23 00:28:41 14 17.00 0.070000 41.649648 41.62752893 0 0 0 0 0 0 0 0 STD5.60
2026-07-23 00:23:39 24 19.10 0.120000 41.649648 41.62752893 0 0 0 0 0 0 0 0 STD5.60
2026-07-23 00:18:37 22 17.90 0.110000 41.649648 41.62752893 0 0 0 0 0 0 0 0 STD5.60
2026-07-23 00:13:33 16 15.80 0.080000 41.649648 41.62752893 0 0 0 0 0 0 0 0 STD5.60
2026-07-23 00:08:31 14 16.00 0.070000 41.649648 41.62752893 0 0 0 0 0 0 0 0 STD5.60
2026-07-23 00:03:30 14 17.00 0.070000 41.649648 41.62752893 0 0 0 0 0 0 0 0 STD5.60
2026-07-22 23:58:28 20 17.00 0.100000 41.649648 41.62752893 0 0 0 0 0 0 0 0 STD5.60
2026-07-22 23:53:26 15 17.10 0.075000 41.649648 41.62752893 0 0 0 0 0 0 0 0 STD5.60
2026-07-22 23:48:24 12 16.60 0.060000 41.649648 41.62752893 0 0 0 0 0 0 0 0 STD5.60
2026-07-22 23:43:22 9 16.10 0.045000 41.649648 41.62752893 0 0 0 0 0 0 0 0 STD5.60
2026-07-22 23:38:21 20 15.90 0.100000 41.649648 41.62752893 0 0 0 0 0 0 0 0 STD5.60
2026-07-22 23:33:19 18 17.10 0.090000 41.649648 41.62752893 0 0 0 0 0 0 0 0 STD5.60
2026-07-22 23:28:17 21 18.50 0.105000 41.649648 41.62752893 0 0 0 0 0 0 0 0 STD5.60
2026-07-22 23:23:15 18 19.60 0.090000 41.649648 41.62752893 0 0 0 0 0 0 0 0 STD5.60
2026-07-22 23:18:13 17 19.30 0.085000 41.649648 41.62752893 0 0 0 0 0 0 0 0 STD5.60
2026-07-22 23:13:09 20 18.20 0.100000 41.649648 41.62752893 0 0 0 0 0 0 0 0 STD5.60
2026-07-22 23:08:08 22 17.70 0.110000 41.649648 41.62752893 0 0 0 0 0 0 0 0 STD5.60
2026-07-22 23:03:06 25 17.90 0.125000 41.649648 41.62752893 0 0 0 0 0 0 0 0 STD5.60
2026-07-22 22:58:04 21 18.00 0.105000 41.649648 41.62752893 0 0 0 0 0 0 0 0 STD5.60
2026-07-22 22:53:02 15 19.00 0.075000 41.649648 41.62752893 0 0 0 0 0 0 0 0 STD5.60
2026-07-22 22:48:02 21 20.00 0.105000 41.649648 41.62752893 0 0 0 0 0 0 0 0 STD5.60
2026-07-22 22:42:58 18 19.70 0.090000 41.649648 41.62752893 0 0 0 0 0 0 0 0 STD5.60
2026-07-22 22:37:57 28 18.20 0.140000 41.649648 41.62752893 0 0 0 0 0 0 0 0 STD5.60
2026-07-22 22:32:55 18 16.20 0.090000 41.649648 41.62752893 0 0 0 0 0 0 0 0 STD5.60
2026-07-22 22:27:53 14 16.50 0.070000 41.649648 41.62752893 0 0 0 0 0 0 0 0 STD5.60
2026-07-22 22:22:52 23 19.10 0.115000 41.649648 41.62752893 0 0 0 0 0 0 0 0 STD5.60
2026-07-22 22:17:50 21 19.50 0.105000 41.649648 41.62752893 0 0 0 0 0 0 0 0 STD5.60
2026-07-22 22:12:35 17 19.30 0.085000 41.649648 41.62752893 0 0 0 0 0 0 0 0 STD5.60
2026-07-22 22:07:33 16 18.00 0.080000 41.649648 41.62752893 0 0 0 0 0 0 0 0 STD5.60
2026-07-22 22:02:32 20 17.00 0.100000 41.649648 41.62752893 0 0 0 0 0 0 0 0 STD5.60
2026-07-22 21:57:30 19 17.50 0.095000 41.649648 41.62752893 0 0 0 0 0 0 0 0 STD5.60
2026-07-22 21:52:28 14 16.40 0.070000 41.649648 41.62752893 0 0 0 0 0 0 0 0 STD5.60
2026-07-22 21:47:26 13 17.10 0.065000 41.649648 41.62752893 0 0 0 0 0 0 0 0 STD5.60
2026-07-22 21:42:24 17 17.80 0.085000 41.649648 41.62752893 0 0 0 0 0 0 0 0 STD5.60
2026-07-22 21:37:23 21 17.10 0.105000 41.649648 41.62752893 0 0 0 0 0 0 0 0 STD5.60
2026-07-22 21:32:21 16 16.40 0.080000 41.649648 41.62752893 0 0 0 0 0 0 0 0 STD5.60
2026-07-22 21:27:19 15 16.40 0.075000 41.649648 41.62752893 0 0 0 0 0 0 0 0 STD5.60
2026-07-22 21:22:17 15 18.30 0.075000 41.649648 41.62752893 0 0 0 0 0 0 0 0 STD5.60
2026-07-22 21:17:15 19 18.90 0.095000 41.649648 41.62752893 0 0 0 0 0 0 0 0 STD5.60
2026-07-22 21:12:12 14 18.90 0.070000 41.649648 41.62752893 0 0 0 0 0 0 0 0 STD5.60
2026-07-22 21:07:10 19 17.50 0.095000 41.649648 41.62752893 0 0 0 0 0 0 0 0 STD5.60
2026-07-22 21:02:08 13 17.90 0.065000 41.649648 41.62752893 0 0 0 0 0 0 0 0 STD5.60
2026-07-22 20:57:06 24 19.10 0.120000 41.649648 41.62752893 0 0 0 0 0 0 0 0 STD5.60
2026-07-22 20:52:05 16 17.80 0.080000 41.649648 41.62752893 0 0 0 0 0 0 0 0 STD5.60
2026-07-22 20:47:03 24 19.00 0.120000 41.649648 41.62752893 0 0 0 0 0 0 0 0 STD5.60
2026-07-22 20:42:01 23 20.10 0.115000 41.649648 41.62752893 0 0 0 0 0 0 0 0 STD5.60
2026-07-22 20:36:59 19 20.30 0.095000 41.649648 41.62752893 0 0 0 0 0 0 0 0 STD5.60
2026-07-22 20:31:58 11 18.80 0.055000 41.649648 41.62752893 0 0 0 0 0 0 0 0 STD5.60
2026-07-22 20:26:55 17 18.20 0.085000 41.649648 41.62752893 0 0 0 0 0 0 0 0 STD5.60
2026-07-22 20:21:54 22 17.60 0.110000 41.649648 41.62752893 0 0 0 0 0 0 0 0 STD5.60
2026-07-22 20:16:52 17 16.80 0.085000 41.649648 41.62752893 0 0 0 0 0 0 0 0 STD5.60
2026-07-22 20:11:48 19 19.00 0.095000 41.649648 41.62752893 0 0 0 0 0 0 0 0 STD5.60
2026-07-22 20:06:49 25 19.20 0.125000 41.649648 41.62752893 0 0 0 0 0 0 0 0 STD5.60
2026-07-22 20:01:44 14 18.00 0.070000 41.649648 41.62752893 0 0 0 0 0 0 0 0 STD5.60
2026-07-22 19:56:43 20 18.40 0.100000 41.649648 41.62752893 0 0 0 0 0 0 0 0 STD5.60
2026-07-22 19:51:41 17 17.60 0.085000 41.649648 41.62752893 0 0 0 0 0 0 0 0 STD5.60
2026-07-22 19:46:39 17 17.20 0.085000 41.649648 41.62752893 0 0 0 0 0 0 0 0 STD5.60
2026-07-22 19:41:37 17 15.60 0.085000 41.649648 41.62752893 0 0 0 0 0 0 0 0 STD5.60
2026-07-22 19:36:35 16 17.90 0.080000 41.649648 41.62752893 0 0 0 0 0 0 0 0 STD5.60
2026-07-22 19:31:35 29 19.20 0.145000 41.649648 41.62752893 0 0 0 0 0 0 0 0 STD5.60
2026-07-22 19:26:32 17 16.10 0.085000 41.649648 41.62752893 0 0 0 0 0 0 0 0 STD5.60
2026-07-22 19:21:30 19 17.80 0.095000 41.649648 41.62752893 0 0 0 0 0 0 0 0 STD5.60
2026-07-22 19:16:28 19 18.80 0.095000 41.649648 41.62752893 0 0 0 0 0 0 0 0 STD5.60
2026-07-22 19:11:23 16 16.50 0.080000 41.649648 41.62752893 0 0 0 0 0 0 0 0 STD5.60
2026-07-22 19:06:22 9 16.50 0.045000 41.649648 41.62752893 0 0 0 0 0 0 0 0 STD5.60
2026-07-22 19:01:20 11 17.90 0.055000 41.649648 41.62752893 0 0 0 0 0 0 0 0 STD5.60
2026-07-22 18:56:18 15 17.60 0.075000 41.649648 41.62752893 0 0 0 0 0 0 0 0 STD5.60
2026-07-22 18:51:16 21 18.20 0.105000 41.649648 41.62752893 0 0 0 0 0 0 0 0 STD5.60
2026-07-22 18:46:14 13 18.20 0.065000 41.649648 41.62752893 0 0 0 0 0 0 0 0 STD5.60
2026-07-22 18:41:13 20 19.50 0.100000 41.649648 41.62752893 0 0 0 0 0 0 0 0 STD5.60
2026-07-22 18:36:11 14 18.50 0.070000 41.649648 41.62752893 0 0 0 0 0 0 0 0 STD5.60
2026-07-22 18:31:09 17 17.70 0.085000 41.649648 41.62752893 0 0 0 0 0 0 0 0 STD5.60
2026-07-22 18:26:07 12 17.70 0.060000 41.649648 41.62752893 0 0 0 0 0 0 0 0 STD5.60
2026-07-22 18:21:05 23 15.30 0.115000 41.649648 41.62752893 0 0 0 0 0 0 0 0 STD5.60
2026-07-22 18:16:04 14 15.80 0.070000 41.649648 41.62752893 0 0 0 0 0 0 0 0 STD5.60
2026-07-22 18:10:59 17 16.10 0.085000 41.649648 41.62752893 0 0 0 0 0 0 0 0 STD5.60
2026-07-22 18:05:57 17 16.70 0.085000 41.649648 41.62752893 0 0 0 0 0 0 0 0 STD5.60
2026-07-22 18:00:55 18 19.90 0.090000 41.649648 41.62752893 0 0 0 0 0 0 0 0 STD5.60
2026-07-22 17:55:53 13 19.70 0.065000 41.649648 41.62752893 0 0 0 0 0 0 0 0 STD5.60
2026-07-22 17:50:52 21 18.80 0.105000 41.649648 41.62752893 0 0 0 0 0 0 0 0 STD5.60
2026-07-22 17:45:50 17 18.40 0.085000 41.649648 41.62752893 0 0 0 0 0 0 0 0 STD5.60
2026-07-22 17:40:48 15 17.70 0.075000 41.649648 41.62752893 0 0 0 0 0 0 0 0 STD5.60
2026-07-22 17:35:46 17 17.30 0.085000 41.649648 41.62752893 0 0 0 0 0 0 0 0 STD5.60
2026-07-22 17:30:45 14 18.10 0.070000 41.649648 41.62752893 0 0 0 0 0 0 0 0 STD5.60
2026-07-22 17:25:43 21 18.80 0.105000 41.649648 41.62752893 0 0 0 0 0 0 0 0 STD5.60
2026-07-22 17:20:41 16 16.00 0.080000 41.649648 41.62752893 0 0 0 0 0 0 0 0 STD5.60
2026-07-22 17:15:39 14 17.20 0.070000 41.649648 41.62752893 0 0 0 0 0 0 0 0 STD5.60
2026-07-22 17:10:35 14 19.20 0.070000 41.649648 41.62752893 0 0 0 0 0 0 0 0 STD5.60
2026-07-22 17:05:34 13 19.00 0.065000 41.649648 41.62752893 0 0 0 0 0 0 0 0 STD5.60
2026-07-22 17:00:32 21 17.50 0.105000 41.649648 41.62752893 0 0 0 0 0 0 0 0 STD5.60
2026-07-22 16:55:31 20 17.40 0.100000 41.649648 41.62752893 0 0 0 0 0 0 0 0 STD5.60
2026-07-22 16:50:28 20 17.70 0.100000 41.649648 41.62752893 0 0 0 0 0 0 0 0 STD5.60
2026-07-22 16:45:27 17 18.20 0.085000 41.649648 41.62752893 0 0 0 0 0 0 0 0 STD5.60
2026-07-22 16:40:25 21 20.20 0.105000 41.649648 41.62752893 0 0 0 0 0 0 0 0 STD5.60
2026-07-22 16:35:23 24 19.50 0.120000 41.649648 41.62752893 0 0 0 0 0 0 0 0 STD5.60
2026-07-22 16:30:22 20 19.10 0.100000 41.649648 41.62752893 0 0 0 0 0 0 0 0 STD5.60
2026-07-22 16:25:20 16 18.00 0.080000 41.649648 41.62752893 0 0 0 0 0 0 0 0 STD5.60
2026-07-22 16:20:18 22 17.90 0.110000 41.649648 41.62752893 0 0 0 0 0 0 0 0 STD5.60
2026-07-22 16:15:16 14 17.20 0.070000 41.649648 41.62752893 0 0 0 0 0 0 0 0 STD5.60
2026-07-22 16:10:13 17 16.80 0.085000 41.649648 41.62752893 0 0 0 0 0 0 0 0 STD5.60
2026-07-22 16:05:11 20 18.10 0.100000 41.649648 41.62752893 0 0 0 0 0 0 0 0 STD5.60
2026-07-22 16:00:09 16 18.70 0.080000 41.649648 41.62752893 0 0 0 0 0 0 0 0 STD5.60
2026-07-22 15:55:16 15 18.90 0.075000 41.649648 41.62752893 0 0 0 0 0 0 0 0 STD5.60
2026-07-22 15:50:07 6 19.20 0.030000 41.649648 41.62752893 0 0 0 0 0 0 0 0 STD5.60
2026-07-22 15:45:07 24 18.60 0.120000 41.649648 41.62752893 0 0 0 0 0 0 0 0 STD5.60
2026-07-22 15:40:26 18 16.20 0.090000 41.649648 41.62752893 0 0 0 0 0 0 0 0 STD5.60
2026-07-22 15:35:00 15 18.10 0.075000 41.649648 41.62752893 0 0 0 0 0 0 0 0 STD5.60
2026-07-22 15:29:58 27 19.90 0.135000 41.649648 41.62752893 0 0 0 0 0 0 0 0 STD5.60
2026-07-22 15:24:56 20 17.30 0.100000 41.649648 41.62752893 0 0 0 0 0 0 0 0 STD5.60
2026-07-22 15:19:54 15 17.30 0.075000 41.649648 41.62752893 0 0 0 0 0 0 0 0 STD5.60
2026-07-22 15:10:48 10 17.30 0.050000 41.649648 41.62752893 0 0 0 0 0 0 0 0 STD5.60
2026-07-22 15:04:47 21 19.20 0.105000 41.649648 41.62752893 0 0 0 0 0 0 0 0 STD5.60
2026-07-22 14:59:45 24 19.50 0.120000 41.649648 41.62752893 0 0 0 0 0 0 0 0 STD5.60
2026-07-22 14:45:38 19 18.20 0.095000 41.649648 41.62752893 0 0 0 0 0 0 0 0 STD5.60
2026-07-22 14:39:43 25 16.40 0.125000 41.649648 41.62752893 0 0 0 0 0 0 0 0 STD5.60
2026-07-22 14:34:36 11 16.10 0.055000 41.649648 41.62752893 0 0 0 0 0 0 0 0 STD5.60
2026-07-22 14:29:34 22 18.90 0.110000 41.649648 41.62752893 0 0 0 0 0 0 0 0 STD5.60
2026-07-22 14:24:32 20 19.50 0.100000 41.649648 41.62752893 0 0 0 0 0 0 0 0 STD5.60
2026-07-22 14:19:31 20 16.90 0.100000 41.649648 41.62752893 0 0 0 0 0 0 0 0 STD5.60
2026-07-22 14:14:29 15 15.60 0.075000 41.649648 41.62752893 0 0 0 0 0 0 0 0 STD5.60
2026-07-22 14:09:25 18 17.50 0.090000 41.649648 41.62752893 0 0 0 0 0 0 0 0 STD5.60
2026-07-22 14:04:23 13 18.60 0.065000 41.649648 41.62752893 0 0 0 0 0 0 0 0 STD5.60
2026-07-22 13:59:21 14 18.90 0.070000 41.649648 41.62752893 0 0 0 0 0 0 0 0 STD5.60
2026-07-22 13:54:20 20 17.10 0.100000 41.649648 41.62752893 0 0 0 0 0 0 0 0 STD5.60
2026-07-22 13:49:18 18 15.60 0.090000 41.649648 41.62752893 0 0 0 0 0 0 0 0 STD5.60
2026-07-22 13:44:16 8 15.70 0.040000 41.649648 41.62752893 0 0 0 0 0 0 0 0 STD5.60
2026-07-22 13:39:14 20 16.10 0.100000 41.649648 41.62752893 0 0 0 0 0 0 0 0 STD5.60
2026-07-22 13:34:12 17 17.10 0.085000 41.649648 41.62752893 0 0 0 0 0 0 0 0 STD5.60
2026-07-22 13:29:11 19 16.10 0.095000 41.649648 41.62752893 0 0 0 0 0 0 0 0 STD5.60
2026-07-22 13:24:09 8 15.90 0.040000 41.649648 41.62752893 0 0 0 0 0 0 0 0 STD5.60
2026-07-22 13:19:07 13 18.00 0.065000 41.649648 41.62752893 0 0 0 0 0 0 0 0 STD5.60
2026-07-22 13:14:05 22 19.70 0.110000 41.649648 41.62752893 0 0 0 0 0 0 0 0 STD5.60
2026-07-22 13:09:03 17 20.30 0.085000 41.649648 41.62752893 0 0 0 0 0 0 0 0 STD5.60
2026-07-22 13:04:00 15 20.40 0.075000 41.649648 41.62752893 0 0 0 0 0 0 0 0 STD5.60
2026-07-22 12:58:58 17 19.70 0.085000 41.649648 41.62752893 0 0 0 0 0 0 0 0 STD5.60
2026-07-22 12:53:56 16 20.40 0.080000 41.649648 41.62752893 0 0 0 0 0 0 0 0 STD5.60
2026-07-22 12:48:54 20 18.90 0.100000 41.649648 41.62752893 0 0 0 0 0 0 0 0 STD5.60
2026-07-22 12:43:52 19 17.10 0.095000 41.649648 41.62752893 0 0 0 0 0 0 0 0 STD5.60
2026-07-22 12:38:51 20 18.50 0.100000 41.649648 41.62752893 0 0 0 0 0 0 0 0 STD5.60
2026-07-22 12:33:49 19 18.00 0.095000 41.649648 41.62752893 0 0 0 0 0 0 0 0 STD5.60
2026-07-22 12:28:47 17 16.00 0.085000 41.649648 41.62752893 0 0 0 0 0 0 0 0 STD5.60
2026-07-22 12:23:45 16 17.10 0.080000 41.649648 41.62752893 0 0 0 0 0 0 0 0 STD5.60
2026-07-22 12:18:44 23 17.40 0.115000 41.649648 41.62752893 0 0 0 0 0 0 0 0 STD5.60
2026-07-22 12:13:42 14 16.90 0.070000 41.649648 41.62752893 0 0 0 0 0 0 0 0 STD5.60
2026-07-22 12:08:37 18 19.60 0.090000 41.649648 41.62752893 0 0 0 0 0 0 0 0 STD5.60
2026-07-22 12:03:35 22 19.70 0.110000 41.649648 41.62752893 0 0 0 0 0 0 0 0 STD5.60
2026-07-22 11:58:34 19 19.60 0.095000 41.649648 41.62752893 0 0 0 0 0 0 0 0 STD5.60
2026-07-22 11:53:32 20 20.10 0.100000 41.649648 41.62752893 0 0 0 0 0 0 0 0 STD5.60
2026-07-22 11:48:30 21 19.10 0.105000 41.649648 41.62752893 0 0 0 0 0 0 0 0 STD5.60
2026-07-22 11:43:28 19 18.10 0.095000 41.649648 41.62752893 0 0 0 0 0 0 0 0 STD5.60
2026-07-22 11:38:26 26 17.50 0.130000 41.649648 41.62752893 0 0 0 0 0 0 0 0 STD5.60
2026-07-22 11:33:25 17 18.60 0.085000 41.649648 41.62752893 0 0 0 0 0 0 0 0 STD5.60
2026-07-22 11:28:23 17 19.60 0.085000 41.649648 41.62752893 0 0 0 0 0 0 0 0 STD5.60
2026-07-22 11:23:21 18 17.30 0.090000 41.649648 41.62752893 0 0 0 0 0 0 0 0 STD5.60
2026-07-22 11:18:20 17 16.00 0.085000 41.649648 41.62752893 0 0 0 0 0 0 0 0 STD5.60
2026-07-22 11:13:15 10 17.00 0.050000 41.649648 41.62752893 0 0 0 0 0 0 0 0 STD5.60
2026-07-22 11:08:13 9 18.80 0.045000 41.649648 41.62752893 0 0 0 0 0 0 0 0 STD5.60
2026-07-22 11:03:11 22 18.90 0.110000 41.649648 41.62752893 0 0 0 0 0 0 0 0 STD5.60
2026-07-22 10:58:09 17 17.10 0.085000 41.649648 41.62752893 0 0 0 0 0 0 0 0 STD5.60
2026-07-22 10:53:08 19 17.00 0.095000 41.649648 41.62752893 0 0 0 0 0 0 0 0 STD5.60
2026-07-22 10:48:06 16 17.70 0.080000 41.649648 41.62752893 0 0 0 0 0 0 0 0 STD5.60
2026-07-22 10:43:04 18 18.10 0.090000 41.649648 41.62752893 0 0 0 0 0 0 0 0 STD5.60
2026-07-22 10:38:02 23 18.50 0.115000 41.649648 41.62752893 0 0 0 0 0 0 0 0 STD5.60
2026-07-22 10:33:01 26 18.40 0.130000 41.649648 41.62752893 0 0 0 0 0 0 0 0 STD5.60
2026-07-22 10:27:59 20 19.20 0.100000 41.649648 41.62752893 0 0 0 0 0 0 0 0 STD5.60
2026-07-22 10:22:57 18 20.10 0.090000 41.649648 41.62752893 0 0 0 0 0 0 0 0 STD5.60
2026-07-22 10:17:55 15 17.70 0.075000 41.649648 41.62752893 0 0 0 0 0 0 0 0 STD5.60
2026-07-22 10:12:51 11 18.70 0.055000 41.649648 41.62752893 0 0 0 0 0 0 0 0 STD5.60
2026-07-22 10:07:50 22 18.10 0.110000 41.649648 41.62752893 0 0 0 0 0 0 0 0 STD5.60
2026-07-22 10:02:48 13 16.70 0.065000 41.649648 41.62752893 0 0 0 0 0 0 0 0 STD5.60
2026-07-22 09:57:46 17 17.90 0.085000 41.649648 41.62752893 0 0 0 0 0 0 0 0 STD5.60
2026-07-22 09:52:44 15 18.80 0.075000 41.649648 41.62752893 0 0 0 0 0 0 0 0 STD5.60
2026-07-22 09:47:42 19 17.90 0.095000 41.649648 41.62752893 0 0 0 0 0 0 0 0 STD5.60
2026-07-22 09:42:40 15 16.30 0.075000 41.649648 41.62752893 0 0 0 0 0 0 0 0 STD5.60
2026-07-22 09:37:41 17 20.30 0.085000 41.649648 41.62752893 0 0 0 0 0 0 0 0 STD5.60
2026-07-22 09:32:37 18 21.00 0.090000 41.649648 41.62752893 0 0 0 0 0 0 0 0 STD5.60
2026-07-22 09:27:35 21 16.90 0.105000 41.649648 41.62752893 0 0 0 0 0 0 0 0 STD5.60
2026-07-22 09:22:33 10 14.90 0.050000 41.649648 41.62752893 0 0 0 0 0 0 0 0 STD5.60
2026-07-22 09:17:31 21 7.90 0.105000 41.649648 41.62752893 0 0 0 0 0 0 0 0 STD5.60
2026-07-22 09:12:28 29 17.60 0.145000 41.649648 41.62752893 0 0 0 0 0 0 0 0 STD5.60
2026-07-22 09:07:26 14 16.50 0.070000 41.649648 41.62752893 0 0 0 0 0 0 0 0 STD5.60
2026-07-22 09:02:24 19 17.20 0.095000 41.649648 41.62752893 0 0 0 0 0 0 0 0 STD5.60
2026-07-22 08:57:22 16 19.30 0.080000 41.649648 41.62752893 0 0 0 0 0 0 0 0 STD5.60
2026-07-22 08:52:20 25 18.10 0.125000 41.649648 41.62752893 0 0 0 0 0 0 0 0 STD5.60
2026-07-22 08:47:19 16 16.50 0.080000 41.649648 41.62752893 0 0 0 0 0 0 0 0 STD5.60
2026-07-22 08:42:18 21 18.60 0.105000 41.649648 41.62752893 0 0 0 0 0 0 0 0 STD5.60
2026-07-22 08:37:15 17 18.40 0.085000 41.649648 41.62752893 0 0 0 0 0 0 0 0 STD5.60
2026-07-22 08:32:13 18 16.30 0.090000 41.649648 41.62752893 0 0 0 0 0 0 0 0 STD5.60
2026-07-22 08:27:12 15 17.40 0.075000 41.649648 41.62752893 0 0 0 0 0 0 0 0 STD5.60
2026-07-22 08:22:10 16 17.80 0.080000 41.649648 41.62752893 0 0 0 0 0 0 0 0 STD5.60
2026-07-22 08:17:08 17 18.00 0.085000 41.649648 41.62752893 0 0 0 0 0 0 0 0 STD5.60
2026-07-22 08:12:04 21 19.90 0.105000 41.649648 41.62752893 0 0 0 0 0 0 0 0 STD5.60
2026-07-22 08:07:02 18 20.40 0.090000 41.649648 41.62752893 0 0 0 0 0 0 0 0 STD5.60
2026-07-22 08:02:01 17 17.80 0.085000 41.649648 41.62752893 0 0 0 0 0 0 0 0 STD5.60
2026-07-22 07:56:59 18 17.60 0.090000 41.649648 41.62752893 0 0 0 0 0 0 0 0 STD5.60
2026-07-22 07:51:57 18 20.10 0.090000 41.649648 41.62752893 0 0 0 0 0 0 0 0 STD5.60
2026-07-22 07:46:55 11 19.20 0.055000 41.649648 41.62752893 0 0 0 0 0 0 0 0 STD5.60
2026-07-22 07:41:53 15 18.70 0.075000 41.649648 41.62752893 0 0 0 0 0 0 0 0 STD5.60
2026-07-22 07:36:52 19 17.70 0.095000 41.649648 41.62752893 0 0 0 0 0 0 0 0 STD5.60
2026-07-22 07:31:50 14 17.20 0.070000 41.649648 41.62752893 0 0 0 0 0 0 0 0 STD5.60
2026-07-22 07:26:48 18 16.70 0.090000 41.649648 41.62752893 0 0 0 0 0 0 0 0 STD5.60
2026-07-22 07:21:46 14 15.80 0.070000 41.649648 41.62752893 0 0 0 0 0 0 0 0 STD5.60
2026-07-22 07:16:44 19 17.60 0.095000 41.649648 41.62752893 0 0 0 0 0 0 0 0 STD5.60
2026-07-22 07:11:41 17 17.50 0.085000 41.649648 41.62752893 0 0 0 0 0 0 0 0 STD5.60
2026-07-22 07:06:39 20 15.70 0.100000 41.649648 41.62752893 0 0 0 0 0 0 0 0 STD5.60
2026-07-22 07:01:37 20 16.80 0.100000 41.649648 41.62752893 0 0 0 0 0 0 0 0 STD5.60
2026-07-22 06:56:35 17 16.00 0.085000 41.649648 41.62752893 0 0 0 0 0 0 0 0 STD5.60
2026-07-22 06:51:33 13 15.70 0.065000 41.649648 41.62752893 0 0 0 0 0 0 0 0 STD5.60
2026-07-22 06:46:31 16 18.00 0.080000 41.649648 41.62752893 0 0 0 0 0 0 0 0 STD5.60
2026-07-22 06:41:30 20 18.70 0.100000 41.649648 41.62752893 0 0 0 0 0 0 0 0 STD5.60
2026-07-22 06:36:28 16 19.80 0.080000 41.649648 41.62752893 0 0 0 0 0 0 0 0 STD5.60
2026-07-22 06:31:26 23 19.50 0.115000 41.649648 41.62752893 0 0 0 0 0 0 0 0 STD5.60
2026-07-22 06:26:25 17 18.80 0.085000 41.649648 41.62752893 0 0 0 0 0 0 0 0 STD5.60
2026-07-22 06:21:23 19 17.20 0.095000 41.649648 41.62752893 0 0 0 0 0 0 0 0 STD5.60
2026-07-22 06:16:21 15 16.90 0.075000 41.649648 41.62752893 0 0 0 0 0 0 0 0 STD5.60
2026-07-22 06:11:17 18 18.70 0.090000 41.649648 41.62752893 0 0 0 0 0 0 0 0 STD5.60
2026-07-22 06:06:15 22 20.10 0.110000 41.649648 41.62752893 0 0 0 0 0 0 0 0 STD5.60
2026-07-22 06:01:13 20 19.30 0.100000 41.649648 41.62752893 0 0 0 0 0 0 0 0 STD5.60
2026-07-22 05:56:12 14 16.80 0.070000 41.649648 41.62752893 0 0 0 0 0 0 0 0 STD5.60
2026-07-22 05:51:10 20 16.70 0.100000 41.649648 41.62752893 0 0 0 0 0 0 0 0 STD5.60
2026-07-22 05:46:08 15 17.30 0.075000 41.649648 41.62752893 0 0 0 0 0 0 0 0 STD5.60
2026-07-22 05:41:06 9 18.00 0.045000 41.649648 41.62752893 0 0 0 0 0 0 0 0 STD5.60
2026-07-22 05:36:06 16 18.00 0.080000 41.649648 41.62752893 0 0 0 0 0 0 0 0 STD5.60
2026-07-22 05:31:03 18 18.00 0.090000 41.649648 41.62752893 0 0 0 0 0 0 0 0 STD5.60
2026-07-22 05:26:01 19 18.90 0.095000 41.649648 41.62752893 0 0 0 0 0 0 0 0 STD5.60
2026-07-22 05:20:59 14 20.10 0.070000 41.649648 41.62752893 0 0 0 0 0 0 0 0 STD5.60
2026-07-22 05:15:57 12 21.10 0.060000 41.649648 41.62752893 0 0 0 0 0 0 0 0 STD5.60
2026-07-22 05:10:54 26 20.30 0.130000 41.649648 41.62752893 0 0 0 0 0 0 0 0 STD5.60
2026-07-22 05:05:52 14 17.60 0.070000 41.649648 41.62752893 0 0 0 0 0 0 0 0 STD5.60
2026-07-22 05:00:50 17 16.70 0.085000 41.649648 41.62752893 0 0 0 0 0 0 0 0 STD5.60
2026-07-22 04:55:49 13 19.30 0.065000 41.649648 41.62752893 0 0 0 0 0 0 0 0 STD5.60
2026-07-22 04:50:47 28 19.60 0.140000 41.649648 41.62752893 0 0 0 0 0 0 0 0 STD5.60
2026-07-22 04:45:45 20 16.10 0.100000 41.649648 41.62752893 0 0 0 0 0 0 0 0 STD5.60
2026-07-22 04:40:43 12 17.40 0.060000 41.649648 41.62752893 0 0 0 0 0 0 0 0 STD5.60
2026-07-22 04:35:42 14 18.30 0.070000 41.649648 41.62752893 0 0 0 0 0 0 0 0 STD5.60
2026-07-22 04:30:40 18 17.60 0.090000 41.649648 41.62752893 0 0 0 0 0 0 0 0 STD5.60
2026-07-22 04:25:38 22 19.50 0.110000 41.649648 41.62752893 0 0 0 0 0 0 0 0 STD5.60
2026-07-22 04:20:36 18 21.10 0.090000 41.649648 41.62752893 0 0 0 0 0 0 0 0 STD5.60
2026-07-22 04:15:34 21 19.30 0.105000 41.649648 41.62752893 0 0 0 0 0 0 0 0 STD5.60
2026-07-22 04:10:30 15 17.30 0.075000 41.649648 41.62752893 0 0 0 0 0 0 0 0 STD5.60
2026-07-22 04:05:28 9 19.40 0.045000 41.649648 41.62752893 0 0 0 0 0 0 0 0 STD5.60
2026-07-22 04:00:26 22 17.80 0.110000 41.649648 41.62752893 0 0 0 0 0 0 0 0 STD5.60
2026-07-22 03:55:25 9 17.30 0.045000 41.649648 41.62752893 0 0 0 0 0 0 0 0 STD5.60
2026-07-22 03:50:23 17 18.70 0.085000 41.649648 41.62752893 0 0 0 0 0 0 0 0 STD5.60
2026-07-22 03:45:21 19 18.00 0.095000 41.649648 41.62752893 0 0 0 0 0 0 0 0 STD5.60
2026-07-22 03:40:19 22 18.20 0.110000 41.649648 41.62752893 0 0 0 0 0 0 0 0 STD5.60
2026-07-22 03:35:17 17 18.60 0.085000 41.649648 41.62752893 0 0 0 0 0 0 0 0 STD5.60
2026-07-22 03:30:19 17 20.90 0.085000 41.649648 41.62752893 0 0 0 0 0 0 0 0 STD5.60
2026-07-22 03:25:14 20 20.00 0.100000 41.649648 41.62752893 0 0 0 0 0 0 0 0 STD5.60
2026-07-22 03:20:12 22 16.50 0.110000 41.649648 41.62752893 0 0 0 0 0 0 0 0 STD5.60
2026-07-22 03:15:10 16 16.50 0.080000 41.649648 41.62752893 0 0 0 0 0 0 0 0 STD5.60
2026-07-22 03:10:07 20 16.90 0.100000 41.649648 41.62752893 0 0 0 0 0 0 0 0 STD5.60
2026-07-22 03:05:04 19 16.50 0.095000 41.649648 41.62752893 0 0 0 0 0 0 0 0 STD5.60
2026-07-22 03:00:12 17 16.30 0.085000 41.649648 41.62752893 0 0 0 0 0 0 0 0 STD5.60
2026-07-22 02:55:01 13 16.30 0.065000 41.649648 41.62752893 0 0 0 0 0 0 0 0 STD5.60
2026-07-22 02:49:59 23 16.30 0.115000 41.649648 41.62752893 0 0 0 0 0 0 0 0 STD5.60
2026-07-22 02:44:57 16 17.30 0.080000 41.649648 41.62752893 0 0 0 0 0 0 0 0 STD5.60
2026-07-22 02:39:55 18 16.40 0.090000 41.649648 41.62752893 0 0 0 0 0 0 0 0 STD5.60
2026-07-22 02:34:54 18 17.70 0.090000 41.649648 41.62752893 0 0 0 0 0 0 0 0 STD5.60
2026-07-22 02:29:52 14 21.70 0.070000 41.649648 41.62752893 0 0 0 0 0 0 0 0 STD5.60
2026-07-22 02:24:50 18 19.50 0.090000 41.649648 41.62752893 0 0 0 0 0 0 0 0 STD5.60
2026-07-22 02:19:48 14 17.90 0.070000 41.649648 41.62752893 0 0 0 0 0 0 0 0 STD5.60
2026-07-22 02:14:46 15 18.30 0.075000 41.649648 41.62752893 0 0 0 0 0 0 0 0 STD5.60
2026-07-22 02:09:42 18 17.20 0.090000 41.649648 41.62752893 0 0 0 0 0 0 0 0 STD5.60
2026-07-22 02:04:41 17 16.40 0.085000 41.649648 41.62752893 0 0 0 0 0 0 0 0 STD5.60
2026-07-22 01:59:39 16 15.30 0.080000 41.649648 41.62752893 0 0 0 0 0 0 0 0 STD5.60
2026-07-22 01:54:37 13 17.60 0.065000 41.649648 41.62752893 0 0 0 0 0 0 0 0 STD5.60
2026-07-22 01:49:35 17 20.90 0.085000 41.649648 41.62752893 0 0 0 0 0 0 0 0 STD5.60
2026-07-22 01:44:34 17 18.40 0.085000 41.649648 41.62752893 0 0 0 0 0 0 0 0 STD5.60
2026-07-22 01:39:32 13 15.90 0.065000 41.649648 41.62752893 0 0 0 0 0 0 0 0 STD5.60
2026-07-22 01:34:30 18 16.70 0.090000 41.649648 41.62752893 0 0 0 0 0 0 0 0 STD5.60
2026-07-22 01:29:28 13 17.30 0.065000 41.649648 41.62752893 0 0 0 0 0 0 0 0 STD5.60
2026-07-22 01:24:26 22 17.20 0.110000 41.649648 41.62752893 0 0 0 0 0 0 0 0 STD5.60
Geiger Counter World Map       A real time radiation map.     Copyright 2015 All rights reserved.